Time,TemperatureF,DewpointF,PressureIn,WindDirection,WindDirectionDegrees,WindSpeedMPH,WindSpeedGustMPH,Humidity,HourlyPrecipIn,Conditions,Clouds,dailyrainin,SoftwareType,DateUTC
2013-04-01 00:05:00,58.8,56.0,29.86,SE,126,0.0,3.0,90,0.00,,,0.47,weatherlink.com 1.10,2013-04-01 04:05:00,
2013-04-01 00:20:00,58.9,56.0,29.86,ESE,109,0.0,3.0,90,0.00,,,0.47,weatherlink.com 1.10,2013-04-01 04:20:00,
2013-04-01 00:35:00,59.0,56.0,29.86,ESE,119,0.0,5.0,90,0.00,,,0.47,weatherlink.com 1.10,2013-04-01 04:35:00,
2013-04-01 00:50:00,59.2,56.0,29.86,East,98,2.0,7.0,90,0.00,,,0.00,weatherlink.com 1.10,2013-04-01 04:50:00,
2013-04-01 01:05:00,59.3,57.0,29.85,ESE,113,0.0,8.0,91,0.00,,,0.00,weatherlink.com 1.10,2013-04-01 05:05:00,
2013-04-01 01:20:00,59.0,57.0,29.85,ESE,102,2.0,5.0,92,0.01,,,0.01,weatherlink.com 1.10,2013-04-01 05:20:00,
2013-04-01 01:35:00,58.7,56.0,29.86,SE,126,1.0,3.0,92,0.02,,,0.02,weatherlink.com 1.10,2013-04-01 05:35:00,
2013-04-01 01:50:00,58.5,57.0,29.85,East,93,0.0,4.0,93,0.02,,,0.02,weatherlink.com 1.10,2013-04-01 05:50:00,
2013-04-01 02:05:00,58.2,56.0,29.85,East,88,0.0,5.0,93,0.02,,,0.02,weatherlink.com 1.10,2013-04-01 06:05:00,
2013-04-01 02:20:00,58.0,56.0,29.84,SE,130,1.0,4.0,94,0.01,,,0.02,weatherlink.com 1.10,2013-04-01 06:20:00,
2013-04-01 02:35:00,57.9,56.0,29.85,WSW,237,2.0,4.0,94,0.00,,,0.02,weatherlink.com 1.10,2013-04-01 06:35:00,
2013-04-01 02:50:00,57.8,56.0,29.86,WSW,256,1.0,3.0,94,0.00,,,0.02,weatherlink.com 1.10,2013-04-01 06:50:00,
2013-04-01 03:05:00,57.7,56.0,29.86,West,262,0.0,1.0,95,0.00,,,0.02,weatherlink.com 1.10,2013-04-01 07:05:00,
2013-04-01 03:20:00,57.5,56.0,29.85,West,262,0.0,0.0,95,0.00,,,0.02,weatherlink.com 1.10,2013-04-01 07:20:00,
2013-04-01 03:35:00,57.3,56.0,29.86,West,262,0.0,1.0,95,0.00,,,0.02,weatherlink.com 1.10,2013-04-01 07:35:00,
2013-04-01 03:50:00,57.2,56.0,29.85,West,262,0.0,0.0,95,0.00,,,0.02,weatherlink.com 1.10,2013-04-01 07:50:00,
2013-04-01 04:05:00,57.0,56.0,29.86,SSW,211,0.0,4.0,95,0.00,,,0.02,weatherlink.com 1.10,2013-04-01 08:05:00,
2013-04-01 04:20:00,56.6,55.0,29.86,SW,221,0.0,0.0,93,0.00,,,0.02,weatherlink.com 1.10,2013-04-01 08:20:00,
2013-04-01 04:35:00,56.1,54.0,29.86,SW,221,0.0,0.0,92,0.00,,,0.02,weatherlink.com 1.10,2013-04-01 08:35:00,
2013-04-01 04:50:00,55.8,54.0,29.86,SW,221,0.0,0.0,92,0.00,,,0.02,weatherlink.com 1.10,2013-04-01 08:50:00,
2013-04-01 05:05:00,55.4,53.0,29.86,SW,221,0.0,0.0,92,0.00,,,0.02,weatherlink.com 1.10,2013-04-01 09:05:00,
2013-04-01 05:20:00,55.2,53.0,29.86,SW,221,0.0,0.0,92,0.00,,,0.02,weatherlink.com 1.10,2013-04-01 09:20:00,
2013-04-01 05:35:00,54.9,53.0,29.87,SW,221,0.0,0.0,92,0.00,,,0.02,weatherlink.com 1.10,2013-04-01 09:35:00,
2013-04-01 05:50:00,54.6,52.0,29.87,SW,221,0.0,3.0,91,0.00,,,0.02,weatherlink.com 1.10,2013-04-01 09:50:00,
2013-04-01 06:05:00,54.2,51.0,29.87,SW,221,0.0,0.0,90,0.00,,,0.02,weatherlink.com 1.10,2013-04-01 10:05:00,
2013-04-01 06:21:00,53.6,51.0,29.87,SW,221,0.0,0.0,91,0.00,,,0.02,weatherlink.com 1.10,2013-04-01 10:21:00,
2013-04-01 06:36:00,52.6,50.0,29.88,SW,221,0.0,0.0,91,0.00,,,0.02,weatherlink.com 1.10,2013-04-01 10:36:00,
2013-04-01 06:51:00,51.9,50.0,29.88,SW,221,0.0,0.0,93,0.00,,,0.02,weatherlink.com 1.10,2013-04-01 10:51:00,
2013-04-01 07:06:00,51.4,50.0,29.89,SW,221,0.0,0.0,93,0.00,,,0.02,weatherlink.com 1.10,2013-04-01 11:06:00,
2013-04-01 07:21:00,50.8,49.0,29.89,SW,221,0.0,1.0,92,0.00,,,0.02,weatherlink.com 1.10,2013-04-01 11:21:00,
2013-04-01 08:06:00,51.0,48.0,29.91,SSW,198,0.0,1.0,90,0.00,,,0.02,weatherlink.com 1.10,2013-04-01 12:06:00,
2013-04-01 08:21:00,52.4,47.0,29.92,West,268,1.0,4.0,83,0.00,,,0.02,weatherlink.com 1.10,2013-04-01 12:21:00,
2013-04-01 08:36:00,54.3,48.0,29.93,SW,217,0.0,4.0,79,0.00,,,0.02,weatherlink.com 1.10,2013-04-01 12:36:00,
2013-04-01 09:06:00,56.8,48.0,29.93,SW,219,2.0,4.0,72,0.00,,,0.02,weatherlink.com 1.10,2013-04-01 13:06:00,
2013-04-01 09:21:00,58.3,44.0,29.93,South,190,0.0,6.0,60,0.00,,,0.02,weatherlink.com 1.10,2013-04-01 13:21:00,
2013-04-01 09:36:00,59.7,43.0,29.93,WSW,246,0.0,5.0,54,0.00,,,0.02,weatherlink.com 1.10,2013-04-01 13:36:00,
2013-04-01 10:06:00,61.8,39.0,29.93,WSW,242,3.0,5.0,44,0.00,,,0.02,weatherlink.com 1.10,2013-04-01 14:06:00,
2013-04-01 10:21:00,62.9,39.0,29.93,South,172,1.0,5.0,42,0.00,,,0.02,weatherlink.com 1.10,2013-04-01 14:21:00,
2013-04-01 10:36:00,63.3,40.0,29.93,SW,221,2.0,9.0,43,0.00,,,0.02,weatherlink.com 1.10,2013-04-01 14:36:00,
2013-04-01 10:51:00,64.1,40.0,29.94,SW,236,4.0,7.0,42,0.00,,,0.02,weatherlink.com 1.10,2013-04-01 14:51:00,
2013-04-01 11:06:00,65.4,37.0,29.94,ESE,118,1.0,8.0,35,0.00,,,0.02,weatherlink.com 1.10,2013-04-01 15:06:00,
2013-04-01 11:22:00,66.1,38.0,29.94,West,275,6.0,7.0,36,0.00,,,0.02,weatherlink.com 1.10,2013-04-01 15:22:00,
2013-04-01 11:37:00,66.9,38.0,29.94,SW,219,3.0,5.0,35,0.00,,,0.02,weatherlink.com 1.10,2013-04-01 15:37:00,
2013-04-01 11:52:00,68.0,38.0,29.95,West,277,4.0,10.0,34,0.00,,,0.02,weatherlink.com 1.10,2013-04-01 15:52:00,
2013-04-01 12:07:00,68.9,39.0,29.94,SW,220,2.0,7.0,33,0.00,,,0.02,weatherlink.com 1.10,2013-04-01 16:07:00,
2013-04-01 12:22:00,69.2,39.0,29.93,West,262,1.0,7.0,33,0.00,,,0.02,weatherlink.com 1.10,2013-04-01 16:22:00,
2013-04-01 12:37:00,69.3,36.0,29.93,SSE,151,1.0,12.0,30,0.00,,,0.02,weatherlink.com 1.10,2013-04-01 16:37:00,
2013-04-01 12:52:00,70.6,37.0,29.92,ESE,123,4.0,8.0,29,0.00,,,0.02,weatherlink.com 1.10,2013-04-01 16:52:00,
2013-04-01 13:07:00,70.2,37.0,29.92,ESE,109,2.0,7.0,30,0.00,,,0.02,weatherlink.com 1.10,2013-04-01 17:07:00,
2013-04-01 13:22:00,70.4,38.0,29.92,ESE,103,3.0,7.0,31,0.00,,,0.02,weatherlink.com 1.10,2013-04-01 17:22:00,
2013-04-01 13:37:00,71.4,39.0,29.91,East,84,2.0,12.0,31,0.00,,,0.02,weatherlink.com 1.10,2013-04-01 17:37:00,
2013-04-01 14:07:00,71.5,38.0,29.90,East,92,1.0,11.0,30,0.00,,,0.02,weatherlink.com 1.10,2013-04-01 18:07:00,
2013-04-01 14:22:00,72.1,39.0,29.90,SW,217,3.0,13.0,30,0.00,,,0.02,weatherlink.com 1.10,2013-04-01 18:22:00,
2013-04-01 14:37:00,72.9,40.0,29.89,ESE,106,2.0,10.0,31,0.00,,,0.02,weatherlink.com 1.10,2013-04-01 18:37:00,
2013-04-01 14:52:00,72.8,41.0,29.89,SE,141,2.0,12.0,32,0.00,,,0.02,weatherlink.com 1.10,2013-04-01 18:52:00,
2013-04-01 15:07:00,72.8,40.0,29.88,SSE,162,2.0,11.0,30,0.00,,,0.02,weatherlink.com 1.10,2013-04-01 19:07:00,
2013-04-01 15:22:00,73.5,37.0,29.88,ESE,108,2.0,11.0,27,0.00,,,0.02,weatherlink.com 1.10,2013-04-01 19:22:00,
2013-04-01 15:37:00,72.1,39.0,29.87,ESE,115,9.0,16.0,30,0.00,,,0.02,weatherlink.com 1.10,2013-04-01 19:37:00,
2013-04-01 15:52:00,73.9,41.0,29.87,ESE,102,1.0,9.0,30,0.00,,,0.02,weatherlink.com 1.10,2013-04-01 19:52:00,
2013-04-01 16:07:00,72.9,38.0,29.87,ESE,103,1.0,8.0,28,0.00,,,0.02,weatherlink.com 1.10,2013-04-01 20:07:00,
2013-04-01 16:52:00,73.3,37.0,29.88,SE,140,7.0,14.0,27,0.00,,,0.02,weatherlink.com 1.10,2013-04-01 20:52:00,
2013-04-01 17:07:00,72.7,39.0,29.89,SE,145,3.0,15.0,29,0.00,,,0.02,weatherlink.com 1.10,2013-04-01 21:07:00,
2013-04-01 17:22:00,72.1,39.0,29.88,SW,231,4.0,12.0,30,0.00,,,0.02,weatherlink.com 1.10,2013-04-01 21:22:00,
2013-04-01 17:37:00,71.9,38.0,29.89,SW,217,11.0,15.0,29,0.00,,,0.02,weatherlink.com 1.10,2013-04-01 21:37:00,
2013-04-01 17:52:00,71.7,38.0,29.89,SW,223,5.0,9.0,29,0.00,,,0.02,weatherlink.com 1.10,2013-04-01 21:52:00,
2013-04-01 18:23:00,70.7,39.0,29.90,SW,227,4.0,10.0,31,0.00,,,0.02,weatherlink.com 1.10,2013-04-01 22:23:00,
2013-04-01 18:38:00,70.0,39.0,29.90,SW,224,3.0,7.0,32,0.00,,,0.02,weatherlink.com 1.10,2013-04-01 22:38:00,
2013-04-01 18:53:00,69.1,38.0,29.91,North,360,3.0,11.0,32,0.00,,,0.02,weatherlink.com 1.10,2013-04-01 22:53:00,
2013-04-01 19:08:00,67.8,37.0,29.91,SSW,193,6.0,9.0,32,0.00,,,0.02,weatherlink.com 1.10,2013-04-01 23:08:00,
2013-04-01 19:23:00,66.6,37.0,29.91,SSW,206,1.0,7.0,34,0.00,,,0.02,weatherlink.com 1.10,2013-04-01 23:23:00,
2013-04-01 19:38:00,65.8,38.0,29.92,ESE,112,0.0,6.0,36,0.00,,,0.02,weatherlink.com 1.10,2013-04-01 23:38:00,
2013-04-01 19:53:00,65.0,39.0,29.92,ESE,119,1.0,6.0,38,0.00,,,0.02,weatherlink.com 1.10,2013-04-01 23:53:00,
2013-04-01 20:08:00,64.3,38.0,29.92,South,169,0.0,5.0,38,0.00,,,0.02,weatherlink.com 1.10,2013-04-02 00:08:00,
2013-04-01 20:23:00,63.4,38.0,29.92,SE,130,0.0,3.0,39,0.00,,,0.02,weatherlink.com 1.10,2013-04-02 00:23:00,
2013-04-01 20:38:00,62.7,38.0,29.92,ESE,115,0.0,3.0,40,0.00,,,0.02,weatherlink.com 1.10,2013-04-02 00:38:00,
2013-04-01 20:53:00,61.9,38.0,29.93,SSE,168,1.0,3.0,41,0.00,,,0.02,weatherlink.com 1.10,2013-04-02 00:53:00,
2013-04-01 21:08:00,61.4,38.0,29.93,South,178,0.0,5.0,42,0.00,,,0.02,weatherlink.com 1.10,2013-04-02 01:08:00,